Kezdőlap
METAR-TAF:

METAR-TAF

Repülőterek :

Benson, Minnesota, Amerikai Egyesült Államok

földrajzi szélesség: 45-19N, földrajzi hosszúság: 095-39W, magasság: 317 m

Jelenlegi meteorológiai megfigyelések

A jelentés 19 perccel ezelõtt készült, 22:57 UTC
Nyugat-délnyugati szél 4 kt
Hőmérséklet 2°C
Páratartalom 75%
Légköri nyomás 1009 hPa
Látótávolság: 16.1 km
Derült ég

METAR: KBBB 222257Z AUTO 25004KT 10SM CLR 02/M02 A2981 RMK AO2

Idő: 17:16 (23:16 UTC)


TAF: hiányzik

Meteorológiai megfigyelések és előrejelzések több, mint 4000 repülőtéren (METAR és TAF jelentéseket).

A térképen piros és sárga pontok jelzik az elérhető meteorológiai állomásokat.

Mozgassa az egeret a pont fölött, hogy megjelenjen az állomás neve.

Azután kattintson az időjárási megfigyelések és előrejelzések megtekintéséhez.

A térkép megváltoztatása: kattintson a fekete keresztel jelölt zöld gombra ráközelítéshez, a vonallal jelölt zöld gombra távolításhoz, vagy a zöld nyilakra a szomszédos térképek eléréséhez.


METAR-TAF: